User: anonymous   Login
Location: Irma
(52.9170°N, 111.2330°W)
Time: 09:29:46
(UTC-06:00)
Language:

Cosmos 1633 Rocket - Orbit

View from above orbital plane
View from above orbital plane
View from above satellite
View from above satellite

Ground track
Ground track

The orbit data is extracted from the following two-line orbital elements,

1 15593U 85020B   16275.18380600  .00000162  00000-0  16480-4 0  9997
2 15593  82.5380 145.0290 0011880 167.9421 313.8802 14.84233421705953
Epoch (UTC): 01 October 2016 04:24:40
Eccentricity: 0.0011880
inclination: 82.5380°
perigee height: 607 km
apogee height: 624 km
right ascension of ascending node: 145.0290°
argument of perigee: 167.9421°
revolutions per day: 14.84233421
mean anomaly at epoch: 313.8802°
orbit number at epoch: 70595

The dashed part of the orbit path shows where the satellite is in the earth's shadow,  

DLR